This is the latest recevied weather packets stored in our database for station/object KC0RPY. If no packets are shown the sender has not sent any weather packets the latest 10 day(s).
| Time | Temp. | Humidity | Pressure | Rain* | Wind** | Luminosity | Snow |
|---|---|---|---|---|---|---|---|
| 1778081777 | 12.22° C | 48% | 1019.8 hPa | 0 mm | - | 415 W/m² | - |
| 1778081474 | 12.22° C | 50% | 1019.8 hPa | 0 mm | - | 476 W/m² | - |
| 1778081171 | 12.22° C | 49% | 1019.8 hPa | 0 mm | - | 473 W/m² | - |
| 1778080869 | 11.67° C | 50% | 1019.5 hPa | 0 mm | - | 515 W/m² | - |
| 1778080567 | 12.22° C | 47% | 1019.8 hPa | 0 mm | - | 829 W/m² | - |
| 1778080264 | 12.78° C | 55% | 1019.5 hPa | 0 mm | - | 666 W/m² | - |
| 1778079961 | 12.22° C | 57% | 1019.5 hPa | 0 mm | - | 637 W/m² | - |
| 1778079657 | 11.67° C | 56% | 1019.5 hPa | 0 mm | - | 639 W/m² | - |
| 1778079355 | 11.67° C | 59% | 1019.5 hPa | 0 mm | - | 605 W/m² | - |
| 1778079052 | 11.11° C | 57% | 1019.5 hPa | 0 mm | - | 561 W/m² | - |
| 1778078748 | 11.67° C | 60% | 1019.5 hPa | 0 mm | - | 544 W/m² | - |
| 1778078445 | 11.67° C | 59% | 1019.5 hPa | 0 mm | - | 534 W/m² | - |
| 1778078143 | 11.67° C | 60% | 1019.5 hPa | 0 mm | - | 510 W/m² | - |
| 1778077841 | 11.67° C | 59% | 1019.5 hPa | 0 mm | - | 463 W/m² | - |
| 1778077539 | 11.11° C | 61% | 1019.8 hPa | 0 mm | - | 488 W/m² | - |
| 1778077237 | 11.11° C | 59% | 1019.8 hPa | 0 mm | - | 390 W/m² | - |
| 1778076934 | 11.11° C | 59% | 1019.8 hPa | 0 mm | - | 377 W/m² | - |
| 1778076633 | 10.56° C | 62% | 1019.5 hPa | 0 mm | - | 365 W/m² | - |
| 1778076329 | 10.56° C | 61% | 1019.5 hPa | 0 mm | - | 308 W/m² | - |
| 1778076027 | 10.56° C | 60% | 1019.1 hPa | 0 mm | - | 325 W/m² | - |
| 1778075723 | 10.56° C | 58% | 1019.5 hPa | 0 mm | - | 288 W/m² | - |
| 1778075420 | 10.56° C | 65% | 1019.5 hPa | 0 mm | - | 272 W/m² | - |
| 1778075116 | 10.56° C | 64% | 1019.5 hPa | 0 mm | - | 150 W/m² | - |
| 1778074812 | 10° C | 66% | 1019.1 hPa | 0 mm | - | 212 W/m² | - |
| 1778074510 | 10° C | 67% | 1019.1 hPa | 0 mm | - | 108 W/m² | - |
* Rain latest hour (hover to see other rain measurements)
** Current wind speed in m/s (hover to see current wind gust speed)